Location: Unspecified
(0.0000°N, 0.0000°E)
Time: 06:39:24
(UTC+00:00)

A-11 Canister half - Pass Details

Date: 23 November 2019
Orbit: 1515 x 1685 km, 47.2° (Epoch: 10 December)

Event Time Altitude Azimuth Distance (km) Brightness Sun altitude
Rises 12:08:32 0° 201° (SSW) 4,692 11.8 68.9°
Reaches altitude 10° 12:12:01 10° 191° (S) 3,727 11.5 68.7°
Maximum altitude 12:20:12 33° 130° (SE) 2,429 10.7 68.0°
Drops below altitude 10° 12:28:34 10° 70° (ENE) 3,835 11.0 67.2°
Sets 12:32:10 0° 61° (ENE) 4,845 11.4 66.8°
